Location: Sulphur Springs (historical)
(38.1246°N, 122.1900°W)
Time: 05:40:24
(UTC+00:00)

H-2A R/B - Pass Details

Date: 29 October 2020
Orbit: 528 x 653 km, 98.3° (Epoch: 29 November)

Event Time Altitude Azimuth Distance (km) Brightness Sun altitude
Rises 13:34:49 0° 19° (NNE) 2,915 6.2 -11.8°
Reaches altitude 10° 13:37:09 10° 26° (NNE) 1,985 5.4 -11.4°
Maximum altitude 13:41:16 44° 99° (E) 834 3.8 -10.6°
Drops below altitude 10° 13:45:13 10° 172° (S) 1,898 5.3 -9.8°
Sets 13:47:23 0° 179° (S) 2,771 6.1 -9.4°
